User: anonymous   Login
Location: Theydon Bois
(51.6750°N, 0.1050°E)
Time: 10:57:48
(UTC+00:00)
Language:

Spot 2 Rocket - Orbit

View from above orbital plane
View from above orbital plane
View from above satellite
View from above satellite

Ground track
Ground track

The orbit data is extracted from the following two-line orbital elements,

1 20443U 90005H   17352.13415536  .00000098  00000-0  47494-4 0  9992
2 20443  98.7040  33.8270 0010674 170.3224 189.8170 14.38016182461259
Epoch (UTC): 18 December 2017 03:13:11
Eccentricity: 0.0010674
inclination: 98.7040°
perigee height: 757 km
apogee height: 772 km
right ascension of ascending node: 33.8270°
argument of perigee: 170.3224°
revolutions per day: 14.38016182
mean anomaly at epoch: 189.8170°
orbit number at epoch: 46125

The dashed part of the orbit path shows where the satellite is in the earth's shadow,  

DLR